Regional Weather Roundup
Issued by NWS Sioux Falls, SD

Home | Current Version | Previous Version | Graphics & Text | Print | Product List | Glossary On
Versions: 1 2 3 4 5 6 7 8 9 10 11 12 13 14 15 16 17 18 19 20 21 22 23 24 25 26 27 28 29 30 31 32 33 34 35 36 37 38 39 40 41 42 43 44 45 46 47 48 49 50
000
ASUS43 KFSD 280602
RWRFSD

WEATHER ROUNDUP FOR SE SOUTH DAKOTA/SW MINNESOTA/NW IOWA
NATIONAL WEATHER SERVICE SIOUX FALLS SD
100 AM CDT MON JUL 28 2014

NOTE: "FAIR" INDICATES FEW OR NO CLOUDS BELOW 12,000 FEET WITH NO
SIGNIFICANT WEATHER AND OR OBSTRUCTIONS TO VISIBILITY.


SDZ038>040-050-052>070-280700-
SOUTHEAST SOUTH DAKOTA

CITY           SKY/WX    TMP DP  RH WIND       PRES   REMARKS
CHAMBERLAIN    CLEAR     55  52  88 CALM      30.29R
6HR MIN TEMP:  54; 6HR MAX TEMP:  74;

HURON          CLEAR     53  51  93 NW6       30.25S
6HR MIN TEMP:  52; 6HR MAX TEMP:  70;

MADISON        CLOUDY    59  59 100 NW5       30.25R
MITCHELL       CLEAR     57  54  89 NW5       30.26S
6HR MIN TEMP:  57; 6HR MAX TEMP:  72;

SIOUX FALLS    CLEAR     59  56  89 NW7       30.23R
6HR MIN TEMP:  59; 6HR MAX TEMP:  69;

WINNER         FAIR      60  53  77 SE6       30.30R
YANKTON        CLOUDY    61  55  82 NW7       30.25R
$$

MNZ071-072-080-081-089-090-097-098-280700-
SOUTHWEST MINNESOTA

CITY           SKY/WX    TMP DP  RH WIND       PRES   REMARKS
FAIRMONT       CLOUDY    63  55  77 NW9       30.16R
JACKSON        MOCLDY    59  55  88 N9        30.18S
LUVERNE        CLEAR     59  54  82 NW5       30.21S
MARSHALL       CLOUDY    61  55  82 NW8       30.19S
6HR MIN TEMP:  57; 6HR MAX TEMP:  70;

MONTEVIDEO     CLOUDY    63  57  82 N8        30.20R
PIPESTONE      CLEAR     57  54  88 N5        30.21S
REDWOOD FALLS  CLOUDY    63  58  83 NW8       30.17R
TRACY          CLOUDY    62  57  84 NW9       30.20S
WINDOM         CLOUDY    61  55  82 NW13G18   30.18R
WORTHINGTON    PTCLDY    57  54  88 N8        30.20S
$$

IAZ001>003-012>014-020>022-031-032-NEZ013-014-SDZ071-280700-
NORTHWEST IOWA

CITY           SKY/WX    TMP DP  RH WIND       PRES   REMARKS
CHEROKEE       CLEAR     60  57  92 NW7       30.19R
DENISON        CLEAR     59  57  94 NW5       30.18R
ESTHERVILLE    PTCLDY    59  56  89 NW9       30.16S
LE MARS        CLOUDY    59  57  94 NW5       30.22R
ORANGE CITY    CLEAR     61  55  82 N7        30.21S
SIOUX CITY     PTCLDY    59  56  89 W3        30.22R
6HR MIN TEMP:  59; 6HR MAX TEMP:  77;

SPENCER        CLEAR     59  55  87 N9        30.18S
6HR MIN TEMP:  59; 6HR MAX TEMP:  71;

STORM LAKE     CLEAR     57  57 100 NW6       30.20R
$$

ABBREVIATIONS USED IN REMARKS
   TC - TEMPERATURE IN CELSIUS
  WCI - WIND CHILL INDEX
   HX - HEAT INDEX
  VSB - VISIBILITY




USA.gov is the U.S. government's official web portal to all federal, state and local government web resources and services.